Zurück zum Katalog

STARLINK-2435

AktivKommunikationVLEO
NORAD 47843·PAYLOAD·🇺🇸 United States

Gestartet Mar 11, 2021 von Cape Canaveral Space Force Station

Loading…

Nächste Überflüge (nächste 24 Stunden)

TLE

AktuellSource: CelesTrak SupGP

Epoche: Sep 14, 2026, 12:48 UTC

1 47843C 21018BJ  26257.53381944  .00027895  00000+0  89717-3 0  2579
2 47843  53.1575  96.4592 0001219  91.9952 106.3143 15.31683125    11

Verfolge STARLINK-2435 in Echtzeit mit AllMySat

Download on the App Store